Regional Weather Roundup
Issued by NWS

Home | Current Version | Previous Version | Text Only | Print | Product List | Glossary On
Versions: 1 2 3 4 5 6 7 8 9 10 11 12 13 14 15 16 17 18 19 20 21 22 23 24 25 26 27 28 29 30 31 32 33 34 35 36 37 38 39 40 41 42 43 44 45 46 47 48 49 50
000
ASUS43 KFSD 030810
RWRSD

WEATHER ROUNDUP FOR SOUTH DAKOTA
NATIONAL WEATHER SERVICE SIOUX FALLS SD
200 AM CST SAT DEC 03 2022

NOTE: "FAIR" INDICATES FEW OR NO CLOUDS BELOW 12,000 FEET WITH NO
SIGNIFICANT WEATHER AND/OR OBSTRUCTIONS TO VISIBILITY.


SDZ001>005-009-010-012>017-030900-
NORTHWEST AND NORTH CENTRAL SOUTH DAKOTA

CITY           SKY/WX    TMP DP  RH WIND       PRES   REMARKS
BUFFALO          N/A      3  -3  76 S5        30.14F WCI  -6
FAITH            N/A     -1  -6  79 SW7       30.23F WCI -14
MOBRIDGE       CLEAR     -4  -9  79 CALM      30.28F
$$

SDZ012>016-024>037-041>051-057-063-072>074-030900-
SOUTHWEST AND SOUTH CENTRAL SOUTH DAKOTA

CITY           SKY/WX    TMP DP  RH WIND       PRES   REMARKS
RAPID CTY ARPT CLEAR      5   2  87 E3        30.21F
PIERRE         CLEAR      5  -1  76 W5        30.34F WCI  -4
CUSTER         CLEAR     11   3  70 SW7       30.09F WCI   0
ELLSWORTH AFB  CLEAR      9   1  72 CALM      30.16F
PHILIP         CLEAR     -2  -6  83 CALM      30.31F
PINE RIDGE     CLEAR      3   0  87 CALM      30.26F
SPEARFISH        N/A     21   3  45 W12       30.13F WCI   9
WINNER         CLEAR      4  -1  80 W8        30.36R WCI  -9
$$

SDZ004>011-016>023-039-040-030900-
NORTHEAST SOUTH DAKOTA

CITY           SKY/WX    TMP DP  RH WIND       PRES   REMARKS
ABERDEEN       CLEAR      1  -5  75 W8        30.37R WCI -13
WATERTOWN      PTCLDY     1  -4  79 NW15G26   30.27R WCI -18
BROOKINGS      PTCLDY     2  -4  76 NW15      30.29R WCI -17
SISSETON         N/A      4  -4  69 W20       30.30R WCI -17
$$

SDZ017-020-022-023-036>040-048>070-030900-
SOUTHEAST SOUTH DAKOTA

CITY           SKY/WX    TMP DP  RH WIND       PRES   REMARKS
SIOUX FALLS    CLEAR      7  -3  64 NW20G28   30.31R WCI -13
HURON          CLEAR     -1  -6  79 CALM      30.38R
CHAMBERLAIN    CLEAR      7   0  73 NW13      30.38R WCI -10
MADISON        CLEAR      1  -2  85 NW20      30.30R WCI -20
MITCHELL       CLEAR      3  -4  72 W7        30.40R WCI  -9
YANKTON        CLEAR      9   1  70 NW20      30.40R WCI -10
$$

ABBREVIATIONS USED IN REMARKS
   TC - TEMPERATURE IN CELSIUS
  WCI - WIND CHILL INDEX
   HX - HEAT INDEX
  VSB - VISIBILITY




USA.gov is the U.S. government's official web portal to all federal, state and local government web resources and services.